User: anonymous   Login
Location: Lafig�re
(44.4503°N, 4.0357°E)
Time: 03:12:06
(UTC+00:00)
Language:

ARGOS - Orbit

View from above orbital plane
View from above orbital plane
View from above satellite
View from above satellite

Ground track
Ground track

The orbit data is extracted from the following two-line orbital elements,

1 25634U 99008A   20332.79734412 +.00000004 +00000-0 +21587-4 0  9994
2 25634 098.4432 004.1603 0010605 158.8004 201.3614 14.19383202126654
Epoch (UTC): 27 November 2020 19:08:10
Eccentricity: 0.0010605
inclination: 98.4432°
perigee height: 820 km
apogee height: 835 km
right ascension of ascending node: 4.1603°
argument of perigee: 158.8004°
revolutions per day: 14.19383202
mean anomaly at epoch: 201.3614°
orbit number at epoch: 12665

The dashed part of the orbit path shows where the satellite is in the earth's shadow,  

DLR